Orbital Elements at Epoch 2459200.5 (2020-Dec-17.0) TDB
Reference: JPL 19 (heliocentric ecliptic J2000)
Element | Value | Uncertainty (1-sigma) | Units |
e | .05670423659626174 | 4.8716e-08 | |
a | 2.27944457120541 | 1.3266e-08 | au |
q | 2.150190406931714 | 1.1341e-07 | au |
i | 2.69145168736496 | 4.9908e-06 | deg |
node | 324.9900016360281 | 0.00010665 | deg |
peri | 234.7188918133096 | 0.00011604 | deg |
M | 339.2642345089272 | 4.8365e-05 | deg |
tp | 2459272.903498690868 (2021-Feb-27.40349869) | 0.00016915 | TDB |
period | 1257.019401571361 3.44 | 1.0974e-05 3.005e-08 | d yr |
n | .2863917609783708 | 2.5002e-09 | deg/d |
Q | 2.408698735479106 | 1.4019e-08 | au |
|
| | Orbit Determination Parameters
Additional Information
|